[[{"header":{"parameterUnit":"m.s-1","parameterCategory":1,"la1":30.2991,"la2":30.254,"lo1":-89.0895,"lo2":-89.0444,"dy":0.0017,"dx":0.0017,"nx":28,"ny":28,"refTime":"2024-05-15T03:00:00:Z","depth":0,"parameterNumber":2,"parameterNumberName":"U-component_of_WINDS"},"data":[0,0,0,0,0,0,0,0,0,0,0,0,0,0,0,0,0,0,0,0,0,0,0,0,0,0,0,0,0,0,0,0,0,0,0,0,0,0,0,0,0,0,0,0,0,0,0,0,0,0,0,0,0,0,0,0,0,0,3.245,3.2451,0,3.2565,3.2566,3.2568,3.2586,3.2585,3.2584,3.2583,3.2702,3.2706,3.271,0,0,0,0,0,0,0,0,0,0,0,0,0,3.225,3.2253,3.245,3.2452,3.2453,3.2565,3.2566,3.2568,3.2586,3.2585,3.2583,3.2582,3.2701,3.2706,3.2711,0,0,0,0,0,0,0,0,0,0,0,0,0,3.2348,3.2255,3.245,3.2475,3.2479,3.2564,3.2566,3.2568,3.2586,3.2585,3.2583,3.2582,3.2699,3.2705,3.2711,3.278,0,0,3.273,3.2733,0,0,0,0,0,0,0,0,3.2342,3.2355,3.247,3.2474,3.2478,3.2559,3.254,3.2639,3.2587,3.2545,3.2583,3.2581,3.2656,3.2666,3.2691,3.2786,3.2791,3.2731,3.2734,3.2737,3.2739,0,0,0,0,0,0,0,3.2336,3.235,3.2496,3.2472,3.2476,3.2482,3.2494,3.2559,3.2608,3.2549,3.255,3.2564,3.2658,3.2685,3.2693,3.2792,3.273,3.2736,3.274,3.2742,3.2953,3.2955,0,0,0,0,0,0,3.2324,3.2345,3.2492,3.2499,3.2405,3.2487,3.2501,3.2535,3.2607,3.2617,3.2565,3.2564,3.2675,3.2686,3.2698,3.2786,3.2737,3.2743,3.2746,3.2951,3.2954,3.2956,0,0,0,0,0,0,3.2319,3.2337,3.2487,3.2422,3.2442,3.2492,3.253,3.2538,3.2565,3.2619,3.2628,3.2583,3.2674,3.2689,3.276,3.279,3.2746,3.2751,3.2949,3.2952,3.2955,3.296,0,0,0,0,0,0,3.2314,3.2335,3.2361,3.2423,3.2445,3.2547,3.2532,3.2541,3.2575,3.2575,3.2639,3.2648,3.2674,3.2751,3.2766,3.2798,3.2756,3.2947,3.295,3.2954,3.2958,3.2963,3.2968,0,0,0,0,0,3.2306,3.2357,3.2362,3.238,3.2478,3.2548,3.2561,3.259,3.2577,3.2605,3.264,3.2646,3.2784,3.2758,3.2775,3.2809,3.2945,3.2949,3.2954,3.2956,3.2962,3.2967,0,0,0,0,0,0,3.2298,3.2366,3.2372,3.2444,3.249,3.2551,3.2586,3.2595,3.2646,3.2644,3.2678,3.2692,3.2762,3.2793,3.2762,3.2881,3.2864,3.2872,3.2859,3.2866,3.287,3.2863,3.2761,0,0,0,0,0,3.2304,3.2354,3.2411,3.247,3.2493,3.2536,3.2567,3.2585,3.2634,3.2654,3.2695,3.2743,3.2798,3.2833,3.2886,3.2962,3.2978,3.2994,3.2999,3.3002,3.301,3.3055,3.3064,3.297,3.297,3.297,0,0,3.2318,3.2362,3.2391,3.2469,3.2507,3.256,3.2552,3.2607,3.2648,3.2663,3.2733,3.2765,3.2821,3.2896,3.293,3.2923,3.3039,3.3008,3.301,3.3016,3.306,3.3069,3.3077,3.2973,3.2972,3.2972,0,0,3.2371,3.2408,3.2462,3.2501,3.2558,3.2587,3.26,3.266,3.2681,3.2752,3.2766,3.2814,3.2907,3.2947,3.298,3.3051,3.3059,3.3067,3.3093,3.3137,3.3145,3.3151,3.3179,3.3189,3.3073,3.3073,3.3073,0,3.2382,3.2461,3.2489,3.2545,3.258,3.2596,3.2653,3.2689,3.2761,3.2786,3.2776,3.2894,3.2933,3.3019,3.3036,3.3061,3.3079,3.3061,3.3141,3.3148,3.3155,3.3182,3.3192,3.3074,3.3074,3.3074,3.3074,0,3.2472,3.2527,3.2564,3.2634,3.2673,3.2729,3.2767,3.2803,3.2818,3.2848,3.2922,3.2969,3.3033,3.3055,3.3069,3.3143,3.3137,3.3134,3.3117,3.3164,3.319,3.3201,3.3075,3.3075,3.3075,3.3075,0,0,3.2523,3.2609,3.2622,3.2655,3.2721,3.2765,3.2822,3.2885,3.2917,3.2966,3.3017,3.3095,3.3094,3.3131,3.315,3.3188,3.3245,3.3181,3.3183,3.3193,3.3333,3.3337,3.3348,3.325,3.3252,3.3254,3.3329,0,3.2586,3.2689,3.2717,3.2804,3.2857,3.2874,3.2924,3.2971,3.3,3.305,3.3083,3.314,3.3131,3.3155,3.3193,3.323,3.3274,3.3225,3.33,3.3302,3.3287,3.3361,3.3365,3.3434,3.3339,3.3341,3.3342,0,3.2673,3.2725,3.2818,3.2879,3.2902,3.2947,3.3008,3.3055,3.3109,3.3128,3.317,3.3187,3.325,3.3228,3.3316,3.3282,3.3315,3.3338,3.3341,3.3351,3.3326,3.3376,3.3456,3.3467,3.3358,3.3357,3.3356,0,3.2705,3.2798,3.2866,3.2893,3.2965,3.2997,3.3029,3.3081,3.3118,3.3171,3.3196,3.3256,3.3289,3.3336,3.337,3.335,3.3456,3.3436,3.3476,3.3475,3.3499,3.3497,3.3588,3.3515,3.3515,3.3515,3.3515,0,3.2774,3.283,3.2882,3.2924,3.2989,3.3021,3.3084,3.3117,3.3164,3.3214,3.3231,3.3278,3.3318,3.3371,3.3397,3.3468,3.3482,3.3501,3.3508,3.3501,3.3499,3.3524,3.3521,3.3518,3.3517,3.3517,3.3516,0,3.282,3.2856,3.2933,3.2995,3.3012,3.3058,3.3112,3.3154,3.3185,3.3248,3.3265,3.3313,3.3377,3.3414,3.3493,3.3511,3.3591,3.3594,3.3573,3.3576,3.3614,3.3611,3.3726,3.3744,3.3657,3.3658,3.3659,0,3.2863,3.2907,3.2975,3.301,3.3042,3.3097,3.3135,3.3169,3.3208,3.3274,3.3309,3.3373,3.3427,3.3527,3.3571,3.3632,3.3639,3.3675,3.3649,3.3641,3.3643,3.3641,3.3647,3.368,3.3681,3.3682,3.3682,0,3.2936,3.2952,3.3006,3.3066,3.3111,3.316,3.321,3.3237,3.328,3.3323,3.3388,3.3429,3.3511,3.3576,3.3642,3.3676,3.3688,3.369,3.3703,3.3698,3.3684,3.3695,3.3588,3.3688,3.3687,3.3687,3.3687,3.3686,3.2984,3.3025,3.308,3.314,3.318,3.3226,3.327,3.3307,3.3361,3.3431,3.3447,3.3516,3.3571,3.3661,3.3696,3.3752,3.3746,3.3764,3.3769,3.3774,3.3776,3.3674,3.3764,3.3764,3.3764,3.3763,3.3763,0,3.3061,3.3097,3.3151,3.322,3.3268,3.3273,3.3328,3.3368,3.3429,3.3478,3.3531,3.3607,3.367,3.3719,3.3784,3.3819,3.3826,3.3836,3.3835,3.3843,3.3776,3.376,3.3829,3.3829,3.3829,3.3829,3.3829,3.3829,3.3106,3.3177,3.32,3.3292,3.3328,3.3395,3.3427,3.347,3.3511,3.3595,3.3647,3.3678,3.3728,3.3798,3.3857,3.3869,3.3894,3.3903,3.3917,3.3854,3.3847,3.384,3.3825,3.3907,3.3907,3.3979,3.398,3.398]},{"header":{"parameterUnit":"m.s-1","parameterCategory":1,"la1":30.2991,"la2":30.254,"lo1":-89.0895,"lo2":-89.0444,"dy":0.0017,"dx":0.0017,"nx":28,"ny":28,"refTime":"2024-05-15T03:00:00:Z","depth":0,"parameterNumber":3,"parameterNumberName":"V-component_of_WINDS"},"data":[0,0,0,0,0,0,0,0,0,0,0,0,0,0,0,0,0,0,0,0,0,0,0,0,0,0,0,0,0,0,0,0,0,0,0,0,0,0,0,0,0,0,0,0,0,0,0,0,0,0,0,0,0,0,0,0,0,0,-1.8652,-1.8652,0,-1.863,-1.8629,-1.8629,-1.863,-1.863,-1.8631,-1.8631,-1.8605,-1.8604,-1.8603,0,0,0,0,0,0,0,0,0,0,0,0,0,-1.8695,-1.8694,-1.8652,-1.8652,-1.8652,-1.863,-1.8629,-1.8629,-1.863,-1.863,-1.8631,-1.8631,-1.8606,-1.8604,-1.8603,0,0,0,0,0,0,0,0,0,0,0,0,0,-1.8675,-1.8694,-1.8652,-1.865,-1.8649,-1.863,-1.8629,-1.8629,-1.863,-1.8631,-1.8631,-1.8631,-1.8606,-1.8605,-1.8603,-1.8584,0,0,-1.8598,-1.8598,0,0,0,0,0,0,0,0,-1.8676,-1.8673,-1.865,-1.865,-1.8649,-1.8633,-1.8635,-1.8614,-1.863,-1.8637,-1.8631,-1.8632,-1.8614,-1.8612,-1.8606,-1.8583,-1.8582,-1.8598,-1.8597,-1.8597,-1.8596,0,0,0,0,0,0,0,-1.8677,-1.8674,-1.8643,-1.865,-1.8649,-1.8649,-1.8647,-1.8631,-1.8623,-1.8637,-1.8637,-1.8634,-1.8614,-1.8608,-1.8606,-1.8581,-1.8598,-1.8597,-1.8596,-1.8596,-1.8542,-1.8542,0,0,0,0,0,0,-1.868,-1.8675,-1.8644,-1.8643,-1.8664,-1.8648,-1.8645,-1.8638,-1.8623,-1.8621,-1.8634,-1.8634,-1.861,-1.8608,-1.8605,-1.8583,-1.8597,-1.8595,-1.8595,-1.8543,-1.8542,-1.8542,0,0,0,0,0,0,-1.8681,-1.8677,-1.8645,-1.8659,-1.8655,-1.8647,-1.8638,-1.8637,-1.8631,-1.8621,-1.8619,-1.8629,-1.861,-1.8607,-1.859,-1.8582,-1.8595,-1.8593,-1.8544,-1.8543,-1.8542,-1.8537,0,0,0,0,0,0,-1.8682,-1.8677,-1.867,-1.8659,-1.8654,-1.863,-1.8638,-1.8636,-1.8629,-1.8629,-1.8616,-1.8615,-1.8611,-1.8592,-1.8588,-1.858,-1.8592,-1.8544,-1.8543,-1.8542,-1.8538,-1.8537,-1.8535,0,0,0,0,0,-1.8683,-1.8668,-1.867,-1.8666,-1.8645,-1.863,-1.8627,-1.8623,-1.8628,-1.8621,-1.8615,-1.8615,-1.8583,-1.859,-1.8586,-1.8577,-1.8545,-1.8544,-1.8542,-1.8539,-1.8537,-1.8535,0,0,0,0,0,0,-1.8677,-1.8667,-1.8668,-1.8649,-1.8641,-1.863,-1.862,-1.8621,-1.861,-1.8611,-1.8606,-1.8603,-1.8586,-1.858,-1.8588,-1.8559,-1.8565,-1.8563,-1.8563,-1.8561,-1.856,-1.8562,-1.8591,0,0,0,0,0,-1.8674,-1.8663,-1.8654,-1.8639,-1.8635,-1.8628,-1.8621,-1.862,-1.861,-1.8606,-1.8599,-1.8589,-1.8577,-1.8569,-1.8557,-1.8538,-1.8535,-1.853,-1.8528,-1.8527,-1.8525,-1.8516,-1.8513,-1.8538,-1.8538,-1.8538,0,0,-1.8667,-1.866,-1.8653,-1.8637,-1.863,-1.8619,-1.8625,-1.8612,-1.8604,-1.8604,-1.8588,-1.8582,-1.8571,-1.8553,-1.8544,-1.8547,-1.8518,-1.8525,-1.8524,-1.8523,-1.8514,-1.8512,-1.851,-1.8537,-1.8537,-1.8537,0,0,-1.8647,-1.8641,-1.8628,-1.8622,-1.8612,-1.8608,-1.8605,-1.8595,-1.8591,-1.8575,-1.8576,-1.8565,-1.8544,-1.8537,-1.853,-1.8511,-1.8511,-1.8507,-1.8499,-1.849,-1.8488,-1.8486,-1.848,-1.8478,-1.8506,-1.8505,-1.8505,0,-1.8639,-1.8623,-1.8621,-1.8609,-1.8602,-1.8604,-1.8591,-1.8584,-1.857,-1.8566,-1.8569,-1.8544,-1.8537,-1.8518,-1.8513,-1.8508,-1.8504,-1.8508,-1.8489,-1.8487,-1.8485,-1.8479,-1.8477,-1.8505,-1.8505,-1.8505,-1.8505,0,-1.8614,-1.8602,-1.8593,-1.8582,-1.8574,-1.8561,-1.8557,-1.855,-1.855,-1.8546,-1.853,-1.8521,-1.8509,-1.8504,-1.8502,-1.8485,-1.8487,-1.849,-1.8496,-1.8483,-1.8477,-1.8475,-1.8505,-1.8505,-1.8505,-1.8505,0,0,-1.8588,-1.8578,-1.8574,-1.857,-1.856,-1.8551,-1.8539,-1.8528,-1.8522,-1.8513,-1.8503,-1.8487,-1.849,-1.8482,-1.848,-1.8472,-1.8459,-1.8476,-1.8476,-1.8473,-1.844,-1.8439,-1.8436,-1.8459,-1.8459,-1.8458,-1.8442,0,-1.8569,-1.8548,-1.8547,-1.8528,-1.8518,-1.8521,-1.851,-1.8503,-1.8499,-1.849,-1.8486,-1.8475,-1.8479,-1.8475,-1.8467,-1.8462,-1.8452,-1.8463,-1.845,-1.8449,-1.8453,-1.8433,-1.8431,-1.8415,-1.8439,-1.8439,-1.8439,0,-1.8542,-1.8535,-1.8515,-1.8509,-1.8505,-1.8495,-1.8486,-1.8477,-1.847,-1.8468,-1.8461,-1.846,-1.8448,-1.8455,-1.8439,-1.8446,-1.8441,-1.8438,-1.8437,-1.8435,-1.8443,-1.8431,-1.841,-1.8408,-1.8435,-1.8435,-1.8436,0,-1.8527,-1.8512,-1.8499,-1.8495,-1.8486,-1.848,-1.8476,-1.8469,-1.8463,-1.8455,-1.8451,-1.8441,-1.8436,-1.8428,-1.8425,-1.843,-1.8409,-1.8415,-1.8407,-1.8407,-1.8402,-1.8402,-1.838,-1.8398,-1.8398,-1.8398,-1.8399,0,-1.8505,-1.8493,-1.8492,-1.8484,-1.8471,-1.847,-1.8457,-1.8454,-1.8448,-1.8439,-1.844,-1.8432,-1.8428,-1.842,-1.8417,-1.8405,-1.8402,-1.84,-1.84,-1.84,-1.84,-1.8396,-1.8397,-1.8398,-1.8398,-1.8398,-1.8398,0,-1.8485,-1.8484,-1.847,-1.8464,-1.8462,-1.8453,-1.8448,-1.8441,-1.8438,-1.8427,-1.8425,-1.842,-1.841,-1.8407,-1.8394,-1.8393,-1.8378,-1.8379,-1.8381,-1.8381,-1.8374,-1.8375,-1.8348,-1.8345,-1.8365,-1.8365,-1.8364,0,-1.8472,-1.8463,-1.8457,-1.8452,-1.8448,-1.844,-1.8434,-1.8433,-1.8428,-1.842,-1.8413,-1.8404,-1.8396,-1.838,-1.8375,-1.8366,-1.8366,-1.8358,-1.8365,-1.8366,-1.8367,-1.8368,-1.8367,-1.8356,-1.8356,-1.8356,-1.8356,0,-1.8447,-1.8448,-1.844,-1.8433,-1.8427,-1.8421,-1.8415,-1.8411,-1.8409,-1.8402,-1.8393,-1.8387,-1.8376,-1.8366,-1.8357,-1.8353,-1.8354,-1.8354,-1.8351,-1.8352,-1.8354,-1.8353,-1.8378,-1.8354,-1.8354,-1.8354,-1.8354,-1.8354,-1.843,-1.8424,-1.8419,-1.8411,-1.8407,-1.8402,-1.8395,-1.8393,-1.8385,-1.8376,-1.8376,-1.8366,-1.836,-1.8349,-1.8344,-1.8337,-1.8339,-1.8335,-1.8335,-1.8334,-1.8334,-1.8356,-1.8335,-1.8335,-1.8335,-1.8335,-1.8335,0,-1.8407,-1.8405,-1.8398,-1.839,-1.8385,-1.8388,-1.8382,-1.8376,-1.8368,-1.8363,-1.8356,-1.8346,-1.8337,-1.8333,-1.8325,-1.832,-1.832,-1.8317,-1.8318,-1.8317,-1.8332,-1.8335,-1.8317,-1.8317,-1.8317,-1.8317,-1.8317,-1.8317,-1.8394,-1.8383,-1.8383,-1.837,-1.8368,-1.8359,-1.8356,-1.8351,-1.8347,-1.8337,-1.833,-1.8328,-1.8323,-1.8315,-1.8308,-1.8307,-1.8304,-1.8301,-1.83,-1.8314,-1.8316,-1.8317,-1.832,-1.83,-1.83,-1.8286,-1.8286,-1.8286]}]]